West Paducah, KY

10:10 AM CDT on October 01, 2016 (GMT -0500)
Barkley Regional

Weather History for KPAH - March, 2014

Change the Weather History Date:

Thursday, March 20, 2014

  Actual Average Record
Temperature  
Mean Temperature 47 °F 50 °F  
Max Temperature 64 °F 60 °F 83 °F (1948)
Min Temperature 29 °F 39 °F 20 °F (1965)
Degree Days  
Heating Degree Days 18 16  
Month to date heating degree days 452 371  
Since 1 July heating degree days 4107 3667  
Cooling Degree Days 0 0  
Month to date cooling degree days 0 0  
Year to date cooling degree days 0 0  
Moisture  
Dew Point 29 °F    
Average Humidity 58    
Maximum Humidity 92    
Minimum Humidity 24    
Precipitation  
Precipitation 0.00 in 0.12 in 2.26 in (1955)
Month to date precipitation 2.49 2.41  
Year to date precipitation 7.67 10.00  
Snow  
Snow 0.00 in 0.00 in 0.20 in (1996)
Month to date snowfall 5.4 0.5  
Since 1 July snowfall 18.3 9.0  
Snow Depth 0.00 in    
Sea Level Pressure  
Sea Level Pressure 30.13 in    
Wind  
Wind Speed 5 mph (SW)    
Max Wind Speed 16 mph    
Max Gust Speed 20 mph    
Visibility 7 miles    
Events      
T = Trace of Precipitation, MM = Missing Value Source: NWS Daily Summary

Daily Weather History Graph

Daily Weather History Graph

Search for Another Location

Airport or City:

Trip Planner

Search our weather history database for the weather conditions in past years. The results will help you decide how hot, cold, wet, or windy it might be!

Date:

Astronomy

Mar. 20, 2014 Rise Set
Actual Time 6:58 AM CDT 7:06 PM CDT
Civil Twilight 6:32 AM CDT 7:32 PM CDT
Nautical Twilight 6:02 AM CDT 8:03 PM CDT
Astronomical Twilight 5:31 AM CDT 8:33 PM CDT
Moon 11:20 PM CDT (3/20) 9:10 AM CDT (3/20)
Length of Visible Light 13h 00m
Length of Day
12h 08m
Waning Gibbous, 84% of the Moon is Illuminated
Mar 20
Waning Gibbous
Mar 23
Last Quarter
Mar 30
New
Apr 7
First Quarter
Apr 15
Full

Hourly Weather History & Observations

Time (CDT) Temp. Windchill Dew Point Humidity Pressure Visibility Wind Dir Wind Speed Gust Speed Precip Events Conditions
12:53 AM 34.0 °F - 30.9 °F 89% 30.16 in 6.0 mi Calm Calm - N/A   Clear
1:53 AM 35.1 °F - 30.0 °F 82% 30.17 in 6.0 mi Calm Calm - N/A   Haze
2:53 AM 33.1 °F - 30.0 °F 89% 30.16 in 5.0 mi Calm Calm - N/A   Clear
3:53 AM 32.0 °F - 28.9 °F 88% 30.15 in 4.0 mi Calm Calm - N/A   Clear
4:14 AM 30.9 °F - 28.0 °F 89% 30.15 in 2.5 mi Calm Calm - N/A   Clear
4:53 AM 30.9 °F - 28.9 °F 92% 30.16 in 2.5 mi Calm Calm - N/A   Clear
5:18 AM 30.9 °F - 27.0 °F 85% 30.15 in 3.0 mi Calm Calm - N/A   Clear
5:53 AM 30.9 °F - 28.0 °F 89% 30.17 in 2.5 mi Calm Calm - N/A   Clear
6:11 AM 30.9 °F - 27.0 °F 85% 30.16 in 4.0 mi Calm Calm - N/A   Clear
6:32 AM 32.0 °F - 28.0 °F 85% 30.16 in 2.5 mi Calm Calm - N/A   Clear
6:42 AM 30.0 °F - 27.0 °F 88% 30.17 in 3.0 mi Calm Calm - N/A   Clear
6:49 AM 28.4 °F 24.6 °F 26.6 °F 93% 30.17 in 2.5 mi South 3.5 mph - N/A   Clear
6:53 AM 28.9 °F 25.2 °F 26.1 °F 89% 30.17 in 3.0 mi South 3.5 mph - N/A   Clear
7:02 AM 30.0 °F 25.2 °F 26.1 °F 85% 30.17 in 2.5 mi Variable 4.6 mph - N/A   Clear
7:12 AM 34.0 °F 29.8 °F 28.9 °F 82% 30.17 in 4.0 mi SSW 4.6 mph - N/A   Haze
7:53 AM 36.0 °F - 30.9 °F 82% 30.18 in 3.0 mi Calm Calm - N/A   Haze
8:53 AM - - - N/A% 30.18 in - North - - N/A   Unknown
9:53 AM 48.9 °F - 36.0 °F 61% 30.20 in 7.0 mi Variable 4.6 mph - N/A   Clear
10:53 AM 54.0 °F - 34.0 °F 47% 30.19 in 10.0 mi WSW 8.1 mph - N/A   Clear
11:53 AM 57.9 °F - 33.1 °F 39% 30.18 in 10.0 mi WSW 9.2 mph - N/A   Clear
12:53 PM 61.0 °F - 28.9 °F 30% 30.14 in 10.0 mi WSW 8.1 mph - N/A   Clear
1:53 PM 61.0 °F - 30.0 °F 31% 30.12 in 10.0 mi West 9.2 mph - N/A   Clear
2:53 PM 63.0 °F - 28.0 °F 27% 30.09 in 10.0 mi West 4.6 mph 16.1 mph N/A   Clear
3:53 PM 64.0 °F - 27.0 °F 25% 30.09 in 10.0 mi West 11.5 mph - N/A   Clear
4:53 PM 63.0 °F - 28.0 °F 27% 30.05 in 10.0 mi WSW 11.5 mph - N/A   Clear
5:53 PM 62.1 °F - 28.0 °F 28% 30.05 in 10.0 mi Variable 6.9 mph - N/A   Clear
6:53 PM 59.0 °F - 28.0 °F 31% 30.04 in 10.0 mi SSW 5.8 mph - N/A   Clear
7:53 PM 54.0 °F - 28.9 °F 38% 30.04 in 10.0 mi South 3.5 mph - N/A   Clear
8:53 PM 53.1 °F - 28.9 °F 40% 30.04 in 10.0 mi South 3.5 mph - N/A   Clear
9:53 PM 51.1 °F - 28.9 °F 43% 30.05 in 10.0 mi South 3.5 mph - N/A   Clear
10:53 PM 51.1 °F - 28.9 °F 43% 30.05 in 10.0 mi South 4.6 mph - N/A   Clear
11:53 PM 51.1 °F - 28.9 °F 43% 30.05 in 10.0 mi SSW 4.6 mph - N/A   Clear